Home > Weather > Prešov > Past weeks

Flag for Slovakia Past Weather in Prešov, Slovakia — Yesterday and Last 2 Weeks

Now
77 °F

Sunny.


Feels Like: 79 °F
Forecast: 57 / 80 °F
Wind: 1 mph from North

Location: Kosice - Barca

Current Time: May 28, 2016 at 3:50:21 PM

Latest Report: May 28, 2016 at 3:30 PM


Visibility: 10 mi

Pressure: 29.98 "Hg

Humidity: 54%

Dew Point: 59 °F

Location of PrešovLocation

Past Weather in Prešov — Graph

°F

Prešov Temperature Yesterday

Maximum temperature yesterday: 77 °F (at 1:30 PM)
Minimum temperature yesterday: 55 °F (at 2:30 AM)
Average temperature yesterday: 66 °F

High & Low Weather Summary for the Past Weeks

 TemperatureHumidityPressure
High79 °F (May 24, 1:00 PM)100% (May 14, 4:00 AM)30.12 "Hg (May 14, 4:00 AM)
Low39 °F (May 17, 5:00 AM)32% (May 27, 3:30 PM)29.39 "Hg (May 13, 2:00 PM)
Average59 °F70%29.89 "Hg
* Reported May 13 2:00 PM — May 28 2:30 PM, Prešov, Weather by CustomWeather, © 2016

Note: Actual official high and low records may vary slightly from our data, if they occured in-between our weather recording intervals... More about our weather records

Advertising

Prešov Weather History for the Previous 24 Hours

Scroll right to see more
 ConditionsComfort  
Time TempWeatherWind HumidityBarometerVisibility
2:30 PM
Sat, May 28
77 °FSunny.1 mph54%29.98 "Hg10 mi
2:00 PM79 °FPassing clouds.6 mph48%29.98 "HgN/A
1:30 PM79 °FSunny.6 mph48%30.01 "Hg10 mi
1:00 PM77 °FSunny.9 mph51%30.01 "Hg10 mi
12:30 PM77 °FPassing clouds.6 mph47%30.01 "HgN/A
12:00 PM75 °FSunny.3 mph61%30.04 "Hg10 mi
11:30 AM73 °FSunny.3 mph61%30.04 "Hg10 mi
11:00 AM72 °FSunny.1 mph61%30.04 "Hg10 mi
10:30 AM72 °FSunny.1 mph61%30.04 "Hg10 mi
10:00 AM72 °FSunny.1 mph57%30.04 "Hg10 mi
9:30 AM70 °FSunny.2 mph57%30.04 "Hg10 mi
9:00 AM70 °FSunny.2 mph64%30.04 "Hg10 mi
8:30 AM68 °FPassing clouds.3 mph64%30.04 "HgN/A
8:00 AM70 °FPassing clouds.3 mph60%30.04 "HgN/A
7:30 AM68 °FPassing clouds.3 mph64%30.04 "HgN/A
7:00 AM64 °FSunny.6 mph73%30.04 "Hg10 mi
6:30 AM63 °FPassing clouds.3 mph73%30.04 "HgN/A
6:00 AM61 °FSunny.2 mph77%30.04 "Hg10 mi
5:30 AM61 °FClear.3 mph77%30.04 "Hg10 mi
5:00 AM59 °FClear.1 mph82%30.04 "Hg10 mi
4:30 AM59 °FClear.2 mph82%30.04 "Hg10 mi
4:00 AM61 °FClear.6 mph77%30.04 "Hg10 mi
3:30 AM59 °FPassing clouds.5 mph82%30.04 "HgN/A
3:00 AM59 °FClear.1 mph82%30.04 "Hg10 mi
2:30 AM57 °FPassing clouds.3 mph88%30.04 "HgN/A
2:00 AM59 °FPassing clouds.2 mph82%30.04 "HgN/A
1:30 AM57 °FPassing clouds.1 mph88%30.04 "HgN/A
1:00 AM61 °FPassing clouds.6 mph77%30.04 "HgN/A
12:30 AM61 °FClear.3 mph72%30.04 "Hg10 mi
12:00 AM61 °FClear.1 mph72%30.04 "Hg10 mi
11:30 PM
Fri, May 27
61 °FClear.2 mph72%30.04 "Hg10 mi
11:00 PM61 °FClear.5 mph72%30.04 "Hg10 mi
10:30 PM61 °FClear.6 mph72%30.04 "Hg10 mi
10:00 PM63 °FClear.2 mph73%30.04 "Hg10 mi
9:30 PM63 °FPassing clouds.3 mph77%30.04 "HgN/A
9:00 PM63 °FSunny.3 mph83%30.04 "Hg10 mi
8:30 PM64 °FSunny.2 mph73%30.01 "Hg10 mi
8:00 PM64 °FSunny.5 mph78%30.04 "Hg10 mi
7:30 PM68 °FPassing clouds.3 mph69%30.01 "HgN/A
7:00 PM73 °FSunny.3 mph53%30.01 "Hg10 mi
6:30 PM72 °FSunny.7 mph61%30.01 "Hg10 mi
6:00 PM73 °FSunny.6 mph61%30.01 "Hg10 mi
5:30 PM70 °FSunny.7 mph69%30.01 "Hg10 mi
5:00 PM72 °FPassing clouds.7 mph61%30.04 "HgN/A
4:30 PM73 °FScattered clouds.6 mph50%30.04 "HgN/A
4:00 PM73 °FScattered clouds.6 mph47%30.04 "HgN/A
3:30 PM77 °FSunny.1 mph32%30.04 "Hg10 mi
3:00 PM77 °FPassing clouds.5 mph42%30.04 "HgN/A
Weather by CustomWeather, © 2016

See weather overviewHow to use our weather pages